Regional Weather Roundup
Issued by NWS

Home | Current Version | Previous Version | Graphics & Text | Print | Product List | Glossary On
Versions: 1 2 3 4 5 6 7 8 9 10 11 12 13 14 15 16 17 18 19 20 21 22 23 24 25 26 27 28 29 30 31 32 33 34 35 36 37 38 39 40 41 42 43 44 45 46 47 48 49 50
000
ASUS45 KSLC 100810
RWRUT

UTAH REGIONAL WEATHER ROUNDUP
NATIONAL WEATHER SERVICE SALT LAKE CITY UT
100 AM MST WED FEB 10 2016

UTZ001>011-023>025-100900-

NORTHERN UTAH

CITY           SKY/WX    TMP DP  RH WIND       PRES   REMARKS
BRIGHAM CITY     N/A     12   9  86 CALM      30.49F VSB 1/4
HILL AFB       PTCLDY    25  20  83 E7        30.46F WCI  17
LOGAN          PTCLDY     5   3  91 CALM      30.49F FOG
OGDEN          PTCLDY    24  21  88 S5        30.47F WCI  18
PROVO AIRPORT    N/A    N/A N/A N/A W3        30.47F VSB 1/4
SALT LAKE CITY MOCLDY    27  25  92 SW5       30.48F FOG     WCI  22
VERNAL         CLOUDY    11   7  84 W5        30.49F FOG     WCI   3
WENDOVER       CLOUDY    30  27  86 E5        30.48F WCI  25
HEBER CITY     PTCLDY    10   9  92 CALM      30.45S FOG
WEST JORDAN    PTCLDY    27  23  86 SW3       30.48S

$$

UTZ012>022-026-027-100900-

SOUTHERN/CENTRAL UTAH

CITY           SKY/WX    TMP DP  RH WIND       PRES   REMARKS
BLANDING       PTCLDY    33  16  50 CALM      30.47F
BRYCE CANYON   PTCLDY    19   9  65 W13       30.48F WCI   6
CEDAR CITY     PTCLDY    19  16  88 SE3       30.43F
DELTA          CLOUDY     9   7  92 NE5       30.47F VSB 1/4 WCI   0
HANKSVILLE     MOCLDY    27  23  86 CALM      30.48F
MILFORD        FOG        8   4  83 S8        30.46S VSB 1/4 WCI  -4
MOAB/CYNLANDS  PTCLDY    21  19  92 SW3       30.45F
PRICE          PTCLDY    24  17  74 N8        30.43F WCI  15
ST GEORGE      MOSUNNY   39  25  56 S3        30.39S
KANAB          CLEAR     39  27  60 NW15      30.42S WCI  31

$$

REGIONAL REPORTS     COLORADO/ARIZONA

CITY           SKY/WX    TMP DP  RH WIND       PRES   REMARKS
CRAIG, CO      CLOUDY     0  -5  79 CALM      30.46S
GRAND JUNCTION CLOUDY    22  20  92 CALM      30.45F
RIFLE          CLOUDY    18  12  77 E6        30.48F WCI  10
MONTROSE       CLOUDY    24  16  71 SE9       30.48F WCI  14
CORTEZ         CLOUDY    20  16  84 E5        30.42F WCI  13
PAGE, AZ       CLEAR     36  27  69 CALM      30.41S
GRAND CANYON   PTCLDY    27  18  69 NE3       30.42F
KINGMAN        PTCLDY    45  24  43 NE7       30.30S
FLAGSTAFF      CLEAR     24  13  62 CALM      30.41F

$$

REGIONAL REPORTS    NEVADA/IDAHO/WYOMING

CITY           SKY/WX    TMP DP  RH WIND       PRES   REMARKS
LAS VEGAS, NV  CLEAR     53  28  38 S5        30.25S
ELY            MOCLDY    11   5  77 S15       30.43F WCI  -5
ELKO           CLOUDY    12   8  84 CALM      30.45F
POCATELLO, ID  FOG       19  18  95 CALM      30.43F VSB 1/4
BURLEY         CLEAR     26  24  92 NE8       30.37F WCI  18
EVANSTON, WY   CLOUDY    27  19  72 SE6       30.42F WCI  20
ROCK SPRINGS   CLOUDY    30  19  63 W16       30.37F WCI  19

$$



USA.gov is the U.S. government's official web portal to all federal, state and local government web resources and services.